SCP
0 0 -0 -0 -0 -0 -0 -0 -0 -0 -0 -0 -0 -0 -0 -0 -0 0 0 0 0 0 0 0 0 0 -0 -0 -0 -0 -0 -0
0 0 0 -0 -0 -0 -0 -0 -0 -0 -0 -0 -0 -0 -0 -0 -0 0 0 0 0 0 0 0 0 0 -0 -0 -0 -0 -0 -0
0 0 0 -0 -0 -0 -0 -0 -0 -0 -0 -0 -0 -0 -0 -0 -0 0 0 0 0 0 0 0 0 0 0 -0 -0 -0 -0 -0
0 0 0 0 0 -0 -0 -0 -0 -0 -0 -0 -0 -0 -0 -0 0 0 0 0 0 0 0 0 0 0 0 -0 -0 -0 -0 -0
0 0 0 0 0 0 0 -0 0 0 0 -0 -0 -0 0 0 0 0 0 0 0 0 0 0 0 0 0 0 0 0 0 0
0 0 0 0 0 0 0 0 0 0 0 0 0 0 0 0 0 0 0 0 0 0 0 0 0 0 0 0 0 0 0 0
0 0 0 0 0 0 0 0 0 0 0 0 0 0 0 0 0 0 0 0 0 0 0 0 0 0 0 0 0 0 0 0
0 0 0 0 0 0 0 0 0 0 0 -0 0 0 0 0 0 0 0 0 0 0 0 0 0 0 0 0 0 0 0 0
0 0 0 0 0 0 0 0 0 0 0 -0 -0 0 0 -0 0 0 0 0 0 0 0 0 0 0 0 0 0 0 0 0
1 0 0 0 0 0 0 0 0 0 0 0 0 0 0 0 0 0 0 0 0 0 0 0 0 0 0 0 0 0 0 0
0 1 0 0 0 0 0 0 0 0 0 0 0 0 0 0 0 0 0 0 0 0 0 0 0 0 0 0 0 0 0 0
0 0 0 0 0 1 0 0 0 0 0 0 0 0 0 0 0 1 1 0 0 1 0 0 0 0 0 0 0 0 0 0
0 0 0 0 0 1 1 1 0 0 0 1 1 1 0 0 1 1 1 1 1 1 0 0 0 0 -0 -0 0 0 1 1
0 0 0 0 0 0 1 2 2 1 1 1 2 2 1 1 1 2 2 1 1 0 0 0 0 0 0 -0 0 0 0 0
-0 0 0 0 0 -0 1 2 2 2 3 2 2 4 3 3 2 3 2 2 2 0 0 0 0 0 0 0 0 0 -0 -0
0 0 0 0 -0 0 -0 2 3 2 3 3 4 3 4 4 5 4 3 2 2 1 1 0 0 1 1 0 0 0 0 0
-0 -0 -0 0 0 -0 1 3 4 3 2 2 2 3 3 4 4 5 3 1 2 1 1 1 1 1 0 0 0 0 0 0
0 0 0 -0 0 4 8 6 3 2 2 3 3 2 3 3 4 4 3 1 1 1 1 1 1 0 0 0 0 0 0 0
-0 0 0 0 2 6 5 5 3 2 2 1 3 3 3 4 4 4 3 1 1 1 0 0 1 0 0 0 0 0 0 0
Wind_Speed_500mb
64 61 57 53 52 50 50 47 45 40 35 31 26 25 28 29 27 24 20 17 15 15 15 14 14 14 14 14 16 21 27 21
69 66 61 56 53 53 53 51 49 42 36 31 27 27 28 30 28 25 20 17 15 14 13 12 11 11 10 11 13 16 20 15
70 66 63 58 54 54 53 51 48 43 37 32 29 29 31 32 30 27 22 17 14 13 12 11 9 8 8 7 6 6 7 7
62 69 67 62 56 53 52 51 48 43 38 35 32 31 33 34 32 28 24 18 15 12 12 10 9 7 7 6 6 5 5 6
56 65 68 66 61 57 54 51 48 44 41 37 35 35 35 36 35 30 26 20 15 13 11 11 10 9 8 8 6 5 6 9
51 66 65 65 63 59 55 53 48 44 41 39 37 37 37 36 35 31 25 21 17 14 12 11 11 13 12 11 9 8 4 14
53 73 69 67 63 60 58 54 51 47 44 40 38 37 36 35 33 28 25 21 19 16 15 14 14 16 14 12 12 11 5 9
51 70 74 70 65 61 58 53 49 45 42 40 38 36 35 35 32 28 28 26 20 17 17 18 18 16 12 14 15 16 10 9
64 56 65 66 65 60 57 53 47 45 43 41 39 38 38 37 36 26 21 21 12 4 11 19 16 17 12 13 11 19 19 23
74 63 58 62 65 61 52 43 43 42 40 37 37 37 38 38 33 27 25 20 16 13 10 10 8 12 10 15 16 17 20 18
30 79 69 59 54 59 52 41 34 45 37 28 29 28 33 36 36 32 31 29 27 24 17 19 20 25 25 32 25 22 26 25
37 30 76 57 47 60 49 46 33 31 32 26 20 20 17 24 38 35 32 29 33 28 24 20 23 13 15 24 35 25 22 22
40 32 37 53 55 67 49 45 35 28 29 31 22 24 30 29 26 34 39 41 30 27 37 39 34 29 35 30 34 26 27 26
40 39 19 29 39 56 65 50 54 48 46 37 42 40 36 41 37 32 44 44 40 36 40 44 29 32 34 31 35 32 27 23
16 21 54 33 35 50 52 67 53 52 50 45 45 41 45 43 45 43 36 48 46 45 39 34 21 16 27 41 40 38 39 41
15 13 52 77 77 73 62 53 58 60 51 49 42 44 42 48 48 49 47 44 50 49 39 24 23 29 40 37 33 33 36 39
32 33 56 46 74 57 70 48 40 33 38 40 48 53 52 54 55 55 54 44 55 48 32 31 38 36 35 33 31 31 29 39
42 35 59 55 59 65 51 45 35 24 38 46 48 50 43 47 54 56 48 44 46 40 31 31 44 42 37 32 27 25 13 11
40 47 53 55 49 47 50 49 47 47 45 57 51 52 47 48 57 54 48 41 44 41 36 33 42 43 36 29 27 26 26 24
Wind_Direction_500mb
166 162 164 169 167 165 162 164 165 165 161 157 150 145 148 148 146 145 142 137 136 132 137 135 132 135 140 140 131 133 138 118
169 162 165 169 169 167 165 165 166 166 164 162 159 155 158 158 157 156 155 154 147 144 148 145 139 137 144 146 147 149 159 150
168 164 167 169 171 169 167 166 167 167 167 167 168 164 166 168 167 167 167 167 160 159 161 162 156 153 152 157 167 169 177 182
171 168 169 170 172 171 168 168 170 170 172 174 173 174 172 174 176 176 178 179 176 172 173 179 186 188 186 187 181 189 229 244
176 176 172 171 172 172 171 173 173 174 177 178 178 178 179 180 182 185 188 189 189 188 190 198 207 218 228 236 245 254 275 306
185 183 178 175 175 173 174 176 176 179 182 183 184 182 184 185 188 193 195 200 205 208 211 217 228 238 243 251 261 270 316 358
196 188 182 181 178 176 178 180 179 180 184 185 186 186 187 190 194 198 205 211 221 227 231 235 241 249 261 273 270 263 295 2
198 192 187 182 181 179 182 182 181 182 186 187 189 190 192 195 197 200 212 218 228 246 252 254 256 264 283 282 286 248 270 280
202 199 190 185 183 183 182 185 184 184 188 193 194 195 196 202 201 201 223 233 228 282 306 265 286 268 262 283 305 289 287 285
201 200 194 183 184 182 175 183 190 191 194 196 201 202 204 204 211 209 230 251 232 251 286 317 308 317 277 282 292 310 299 300
275 194 192 186 180 184 187 192 193 193 180 192 206 210 217 216 207 205 229 246 246 262 254 276 288 294 294 291 295 300 306 310
297 162 181 184 183 189 196 199 195 186 182 192 208 212 219 219 217 210 226 236 233 242 260 259 228 230 281 274 286 297 291 294
273 4 145 170 187 192 190 197 198 196 198 214 221 240 242 237 242 229 223 231 232 237 237 241 235 254 271 269 273 285 300 306
254 294 99 166 201 208 202 189 193 198 200 202 210 228 242 246 245 250 241 230 223 232 239 240 247 237 224 257 254 264 265 271
214 237 214 216 222 227 223 212 204 202 203 206 211 232 240 246 254 253 252 243 228 233 244 244 242 233 235 253 260 261 260 266
187 180 201 188 224 243 226 210 211 216 215 211 215 230 233 242 248 256 260 257 234 225 245 228 236 219 234 246 252 261 272 283
187 165 165 190 208 217 222 231 230 235 224 220 220 227 237 238 248 255 258 255 233 226 235 225 238 238 246 261 263 273 288 300
210 210 192 187 188 207 226 230 232 222 225 227 231 231 233 235 241 248 258 259 234 225 221 232 239 249 250 256 246 260 264 254
204 210 201 203 204 202 208 216 217 219 218 221 233 236 237 237 239 248 253 249 233 233 238 234 235 250 255 258 260 252 257 273
Wind_Speed_850mb
64 61 57 53 52 50 50 47 45 40 35 31 26 25 28 29 27 24 20 17 15 15 15 14 14 14 14 14 16 21 27 21
69 66 61 56 53 53 53 51 49 42 36 31 27 27 28 30 28 25 20 17 15 14 13 12 11 11 10 11 13 16 20 15
70 66 63 58 54 54 53 51 48 43 37 32 29 29 31 32 30 27 22 17 14 13 12 11 9 8 8 7 6 6 7 7
62 69 67 62 56 53 52 51 48 43 38 35 32 31 33 34 32 28 24 18 15 12 12 10 9 7 7 6 6 5 5 6
56 65 68 66 61 57 54 51 48 44 41 37 35 35 35 36 35 30 26 20 15 13 11 11 10 9 8 8 6 5 6 9
51 66 65 65 63 59 55 53 48 44 41 39 37 37 37 36 35 31 25 21 17 14 12 11 11 13 12 11 9 8 4 14
53 73 69 67 63 60 58 54 51 47 44 40 38 37 36 35 33 28 25 21 19 16 15 14 14 16 14 12 12 11 5 9
51 70 74 70 65 61 58 53 49 45 42 40 38 36 35 35 32 28 28 26 20 17 17 18 18 16 12 14 15 16 10 9
64 56 65 66 65 60 57 53 47 45 43 41 39 38 38 37 36 26 21 21 12 4 11 19 16 17 12 13 11 19 19 23
74 63 58 62 65 61 52 43 43 42 40 37 37 37 38 38 33 27 25 20 16 13 10 10 8 12 10 15 16 17 20 18
30 79 69 59 54 59 52 41 34 45 37 28 29 28 33 36 36 32 31 29 27 24 17 19 20 25 25 32 25 22 26 25
37 30 76 57 47 60 49 46 33 31 32 26 20 20 17 24 38 35 32 29 33 28 24 20 23 13 15 24 35 25 22 22
40 32 37 53 55 67 49 45 35 28 29 31 22 24 30 29 26 34 39 41 30 27 37 39 34 29 35 30 34 26 27 26
40 39 19 29 39 56 65 50 54 48 46 37 42 40 36 41 37 32 44 44 40 36 40 44 29 32 34 31 35 32 27 23
16 21 54 33 35 50 52 67 53 52 50 45 45 41 45 43 45 43 36 48 46 45 39 34 21 16 27 41 40 38 39 41
15 13 52 77 77 73 62 53 58 60 51 49 42 44 42 48 48 49 47 44 50 49 39 24 23 29 40 37 33 33 36 39
32 33 56 46 74 57 70 48 40 33 38 40 48 53 52 54 55 55 54 44 55 48 32 31 38 36 35 33 31 31 29 39
42 35 59 55 59 65 51 45 35 24 38 46 48 50 43 47 54 56 48 44 46 40 31 31 44 42 37 32 27 25 13 11
40 47 53 55 49 47 50 49 47 47 45 57 51 52 47 48 57 54 48 41 44 41 36 33 42 43 36 29 27 26 26 24
Wind_Direction_850mb
166 162 164 169 167 165 162 164 165 165 161 157 150 145 148 148 146 145 142 137 136 132 137 135 132 135 140 140 131 133 138 118
169 162 165 169 169 167 165 165 166 166 164 162 159 155 158 158 157 156 155 154 147 144 148 145 139 137 144 146 147 149 159 150
168 164 167 169 171 169 167 166 167 167 167 167 168 164 166 168 167 167 167 167 160 159 161 162 156 153 152 157 167 169 177 182
171 168 169 170 172 171 168 168 170 170 172 174 173 174 172 174 176 176 178 179 176 172 173 179 186 188 186 187 181 189 229 244
176 176 172 171 172 172 171 173 173 174 177 178 178 178 179 180 182 185 188 189 189 188 190 198 207 218 228 236 245 254 275 306
185 183 178 175 175 173 174 176 176 179 182 183 184 182 184 185 188 193 195 200 205 208 211 217 228 238 243 251 261 270 316 358
196 188 182 181 178 176 178 180 179 180 184 185 186 186 187 190 194 198 205 211 221 227 231 235 241 249 261 273 270 263 295 2
198 192 187 182 181 179 182 182 181 182 186 187 189 190 192 195 197 200 212 218 228 246 252 254 256 264 283 282 286 248 270 280
202 199 190 185 183 183 182 185 184 184 188 193 194 195 196 202 201 201 223 233 228 282 306 265 286 268 262 283 305 289 287 285
201 200 194 183 184 182 175 183 190 191 194 196 201 202 204 204 211 209 230 251 232 251 286 317 308 317 277 282 292 310 299 300
275 194 192 186 180 184 187 192 193 193 180 192 206 210 217 216 207 205 229 246 246 262 254 276 288 294 294 291 295 300 306 310
297 162 181 184 183 189 196 199 195 186 182 192 208 212 219 219 217 210 226 236 233 242 260 259 228 230 281 274 286 297 291 294
273 4 145 170 187 192 190 197 198 196 198 214 221 240 242 237 242 229 223 231 232 237 237 241 235 254 271 269 273 285 300 306
254 294 99 166 201 208 202 189 193 198 200 202 210 228 242 246 245 250 241 230 223 232 239 240 247 237 224 257 254 264 265 271
214 237 214 216 222 227 223 212 204 202 203 206 211 232 240 246 254 253 252 243 228 233 244 244 242 233 235 253 260 261 260 266
187 180 201 188 224 243 226 210 211 216 215 211 215 230 233 242 248 256 260 257 234 225 245 228 236 219 234 246 252 261 272 283
187 165 165 190 208 217 222 231 230 235 224 220 220 227 237 238 248 255 258 255 233 226 235 225 238 238 246 261 263 273 288 300
210 210 192 187 188 207 226 230 232 222 225 227 231 231 233 235 241 248 258 259 234 225 221 232 239 249 250 256 246 260 264 254
204 210 201 203 204 202 208 216 217 219 218 221 233 236 237 237 239 248 253 249 233 233 238 234 235 250 255 258 260 252 257 273